| time (UTC) | temp F | wind direction | speed knots | gust knots | rain 1hr in | rain 24hr in | rain mn in | humidity % | barometer mb |
| 20260906064805 | 84 | 195 | 5.2 | 7.8 | 0.00 | 0.00 | 0.00 | 74 | 1014.7 |
| 20260906064301 | 84 | 114 | 5.2 | 7.0 | 0.00 | 0.00 | 0.00 | 74 | 1014.9 |
| 20260906063801 | 84 | 201 | 1.7 | 2.6 | 0.00 | 0.00 | 0.00 | 74 | 1014.7 |
| 20260906063256 | 84 | 158 | 5.2 | 7.0 | 0.00 | 0.00 | 0.00 | 74 | 1014.9 |
| 20260906062751 | 84 | 144 | 6.1 | 7.8 | 0.00 | 0.00 | 0.00 | 74 | 1014.9 |
| 20260906062250 | 84 | 145 | 6.1 | 7.8 | 0.00 | 0.00 | 0.00 | 73 | 1015.1 |
| 20260906061747 | 84 | 190 | 1.7 | 2.6 | 0.00 | 0.00 | 0.00 | 74 | 1015.1 |
| 20260906061243 | 84 | 119 | 3.5 | 3.5 | 0.00 | 0.00 | 0.00 | 74 | 1015.1 |
| 20260906060738 | 84 | 176 | 5.2 | 6.1 | 0.00 | 0.00 | 0.00 | 73 | 1014.9 |
| 20260906060235 | 84 | 169 | 4.3 | 7.0 | 0.00 | 0.00 | 0.00 | 74 | 1015.1 |
| 20260906055731 | 84 | 185 | 1.7 | 2.6 | 0.00 | 0.00 | 0.00 | 74 | 1015.2 |
| 20260906055226 | 84 | 154 | 1.7 | 2.6 | 0.00 | 0.00 | 0.00 | 74 | 1015.3 |
| 20260906054721 | 84 | 123 | 0.9 | 1.7 | 0.00 | 0.00 | 0.00 | 74 | 1014.9 |
| 20260906054216 | 84 | 206 | 2.6 | 2.6 | 0.00 | 0.00 | 0.00 | 74 | 1015.0 |
| 20260906053713 | 84 | 120 | 3.5 | 3.5 | 0.00 | 0.00 | 0.00 | 74 | 1015.0 |
| 20260906053208 | 84 | 125 | 4.3 | 5.2 | 0.00 | 0.00 | 0.00 | 74 | 1014.9 |
| 20260906052703 | 84 | 147 | 2.6 | 3.5 | 0.00 | 0.00 | 0.00 | 74 | 1015.1 |
| 20260906052200 | 84 | 144 | 2.6 | 2.6 | 0.00 | 0.00 | 0.00 | 74 | 1014.9 |
| 20260906051656 | 84 | 128 | 1.7 | 1.7 | 0.00 | 0.00 | 0.00 | 74 | 1015.0 |
| 20260906051155 | 84 | 139 | 3.5 | 5.2 | 0.00 | 0.00 | 0.00 | 74 | 1015.1 |
| 20260906050651 | 84 | 120 | 0.9 | 2.6 | 0.00 | 0.00 | 0.00 | 74 | 1015.3 |
| 20260906050146 | 84 | 166 | 2.6 | 2.6 | 0.00 | 0.00 | 0.00 | 74 | 1015.1 |
| 20260906045644 | 84 | 117 | 3.5 | 3.5 | 0.00 | 0.00 | 0.00 | 73 | 1015.3 |
| 20260906045140 | 84 | 137 | 2.6 | 2.6 | 0.00 | 0.00 | 0.00 | 73 | 1015.1 |
| 20260906044636 | 84 | 117 | 5.2 | 7.0 | 0.00 | 0.00 | 0.00 | 73 | 1015.2 |
| 20260906044131 | 84 | 126 | 2.6 | 2.6 | 0.00 | 0.00 | 0.00 | 73 | 1015.1 |
| 20260906043627 | 84 | 101 | 0.9 | 1.7 | 0.00 | 0.00 | 0.00 | 73 | 1015.2 |
| 20260906043122 | 84 | 104 | 5.2 | 7.0 | 0.00 | 0.00 | 0.00 | 72 | 1015.3 |
| 20260906042621 | 84 | 134 | 4.3 | 5.2 | 0.00 | 0.00 | 0.00 | 72 | 1015.1 |
| 20260906042115 | 84 | 79 | 4.3 | 6.1 | 0.00 | 0.00 | 0.00 | 72 | 1015.1 |
| 20260906041612 | 84 | 128 | 5.2 | 7.0 | 0.00 | 0.00 | 0.00 | 71 | 1015.2 |
| 20260906041106 | 84 | 95 | 0.9 | 1.7 | 0.00 | 0.00 | 0.00 | 71 | 1015.0 |
| 20260906040602 | 84 | 153 | 3.5 | 3.5 | 0.00 | 0.00 | 0.00 | 71 | 1014.9 |
| 20260906040057 | 84 | 99 | 3.5 | 5.2 | 0.00 | 0.00 | 0.00 | 71 | 1015.0 |
| 20260906035552 | 84 | 100 | 4.3 | 5.2 | 0.00 | 0.00 | 0.00 | 70 | 1014.9 |
| 20260906035048 | 84 | 138 | 4.3 | 5.2 | 0.00 | 0.00 | 0.00 | 70 | 1015.0 |
| 20260906034548 | 84 | 84 | 3.5 | 3.5 | 0.00 | 0.00 | 0.00 | 69 | 1015.3 |
| 20260906034037 | 85 | 104 | 7.0 | 7.0 | 0.00 | 0.00 | 0.00 | 69 | 1015.0 |
| 20260906033532 | 85 | 71 | 0.9 | 0.9 | 0.00 | 0.00 | 0.00 | 68 | 1015.0 |
| 20260906033027 | 85 | 87 | 7.0 | 11.3 | 0.00 | 0.00 | 0.00 | 68 | 1015.0 |
| 20260906032524 | 85 | 90 | 5.2 | 7.0 | 0.00 | 0.00 | 0.00 | 67 | 1015.0 |
| 20260906032019 | 86 | 84 | 4.3 | 7.0 | 0.00 | 0.00 | 0.00 | 66 | 1014.9 |
| 20260906031515 | 86 | 49 | 4.3 | 7.0 | 0.00 | 0.00 | 0.00 | 65 | 1014.9 |
| 20260906031009 | 86 | 127 | 7.8 | 8.7 | 0.00 | 0.00 | 0.00 | 65 | 1014.7 |
| 20260906030503 | 86 | 98 | 5.2 | 7.8 | 0.00 | 0.00 | 0.00 | 64 | 1014.7 |
| 20260906030003 | 87 | 56 | 1.7 | 3.5 | 0.00 | 0.00 | 0.00 | 64 | 1014.6 |
| 20260906025502 | 87 | 105 | 6.1 | 9.6 | 0.00 | 0.00 | 0.00 | 64 | 1014.5 |
| 20260906025001 | 87 | 53 | 4.3 | 7.0 | 0.00 | 0.00 | 0.00 | 63 | 1014.6 |
| 20260906024456 | 87 | 64 | 2.6 | 5.2 | 0.00 | 0.00 | 0.00 | 63 | 1014.3 |
| 20260906023955 | 87 | 93 | 5.2 | 7.0 | 0.00 | 0.00 | 0.00 | 62 | 1014.2 |
| 20260906023453 | 88 | 37 | 3.5 | 6.1 | 0.00 | 0.00 | 0.00 | 61 | 1014.0 |
| 20260906022953 | 88 | 74 | 6.1 | 8.7 | 0.00 | 0.00 | 0.00 | 60 | 1013.8 |
| 20260906022442 | 88 | 83 | 6.1 | 8.7 | 0.00 | 0.00 | 0.00 | 60 | 1013.7 |
| 20260906021937 | 89 | 100 | 6.1 | 8.7 | 0.00 | 0.00 | 0.00 | 59 | 1013.7 |
| 20260906021432 | 89 | 80 | 1.7 | 2.6 | 0.00 | 0.00 | 0.00 | 58 | 1013.5 |
| 20260906020926 | 89 | 117 | 0.9 | 1.7 | 0.00 | 0.00 | 0.00 | 58 | 1013.5 |
| 20260906020421 | 89 | 99 | 3.5 | 3.5 | 0.00 | 0.00 | 0.00 | 57 | 1013.2 |
| 20260906015915 | 89 | 85 | 5.2 | 7.8 | 0.00 | 0.00 | 0.00 | 57 | 1013.0 |
| 20260906015414 | 90 | 89 | 3.5 | 5.2 | 0.00 | 0.00 | 0.00 | 56 | 1013.1 |
| 20260906014909 | 90 | 76 | 7.8 | 11.3 | 0.00 | 0.00 | 0.00 | 56 | 1012.9 |
| 20260906014408 | 90 | 85 | 6.1 | 7.0 | 0.00 | 0.00 | 0.00 | 56 | 1012.9 |
| 20260906013905 | 90 | 83 | 7.0 | 11.3 | 0.00 | 0.00 | 0.00 | 56 | 1013.0 |
| 20260906013400 | 90 | 59 | 8.7 | 9.6 | 0.00 | 0.00 | 0.00 | 55 | 1012.8 |
| 20260906012855 | 91 | 83 | 4.3 | 6.1 | 0.00 | 0.00 | 0.00 | 55 | 1012.9 |
| 20260906012350 | 91 | 67 | 7.0 | 11.3 | 0.00 | 0.00 | 0.00 | 55 | 1012.6 |
| 20260906011850 | 91 | 98 | 4.3 | 6.1 | 0.00 | 0.00 | 0.00 | 55 | 1012.8 |
| 20260906011345 | 91 | 90 | 10.4 | 12.2 | 0.00 | 0.00 | 0.00 | 54 | 1012.5 |
| 20260906010841 | 91 | 40 | 3.5 | 6.1 | 0.00 | 0.00 | 0.00 | 54 | 1012.7 |
| 20260906010336 | 92 | 115 | 4.3 | 5.2 | 0.00 | 0.00 | 0.00 | 53 | 1012.6 |
| 20260906005832 | 92 | 79 | 1.7 | 2.6 | 0.00 | 0.00 | 0.00 | 53 | 1012.8 |
| 20260906005331 | 92 | 127 | 7.0 | 9.6 | 0.00 | 0.00 | 0.00 | 52 | 1012.6 |
| 20260906004830 | 93 | 50 | 10.4 | 13.0 | 0.00 | 0.00 | 0.00 | 51 | 1012.7 |
| 20260906004330 | 93 | 76 | 4.3 | 11.3 | 0.00 | 0.00 | 0.00 | 51 | 1012.7 |
| 20260906003825 | 93 | 105 | 3.5 | 5.2 | 0.00 | 0.00 | 0.00 | 50 | 1012.7 |
| 20260906003320 | 94 | 67 | 3.5 | 6.1 | 0.00 | 0.00 | 0.00 | 50 | 1012.5 |
| 20260906002816 | 94 | 26 | 2.6 | 3.5 | 0.00 | 0.00 | 0.00 | 50 | 1012.5 |
| 20260906002315 | 94 | 90 | 4.3 | 7.0 | 0.00 | 0.00 | 0.00 | 49 | 1012.4 |
| 20260906001812 | 94 | 69 | 5.2 | 7.0 | 0.00 | 0.00 | 0.00 | 48 | 1012.6 |
| 20260906001307 | 94 | 114 | 2.6 | 5.2 | 0.00 | 0.00 | 0.00 | 49 | 1012.5 |
| 20260906000807 | 94 | 54 | 5.2 | 7.0 | 0.00 | 0.00 | 0.00 | 48 | 1012.3 |
| 20260906000303 | 94 | 57 | 9.6 | 12.2 | 0.00 | 0.00 | 0.00 | 48 | 1012.7 |
| 20260905235756 | 95 | 98 | 5.2 | 9.6 | 0.00 | 0.00 | 0.00 | 47 | 1012.4 |
| 20260905235256 | 95 | 73 | 5.2 | 7.8 | 0.00 | 0.00 | 0.00 | 46 | 1012.5 |
| 20260905234752 | 95 | 88 | 6.1 | 11.3 | 0.00 | 0.00 | 0.00 | 46 | 1012.3 |
| 20260905234246 | 95 | 71 | 3.5 | 6.1 | 0.00 | 0.00 | 0.00 | 46 | 1012.4 |
| 20260905233742 | 96 | 103 | 8.7 | 9.6 | 0.00 | 0.00 | 0.00 | 44 | 1012.1 |
| 20260905233242 | 96 | 98 | 5.2 | 6.1 | 0.00 | 0.00 | 0.00 | 42 | 1012.2 |
| 20260905232736 | 96 | 80 | 3.5 | 3.5 | 0.00 | 0.00 | 0.00 | 42 | 1012.1 |
| 20260905232232 | 97 | 97 | 2.6 | 5.2 | 0.00 | 0.00 | 0.00 | 42 | 1012.1 |
| 20260905231728 | 96 | 120 | 5.2 | 7.0 | 0.00 | 0.00 | 0.00 | 41 | 1012.2 |
| 20260905231223 | 96 | 101 | 6.1 | 6.1 | 0.00 | 0.00 | 0.00 | 42 | 1012.0 |
| 20260905230719 | 97 | 97 | 3.5 | 3.5 | 0.00 | 0.00 | 0.00 | 40 | 1012.1 |
| 20260905230217 | 97 | 80 | 0.9 | 1.7 | 0.00 | 0.00 | 0.00 | 41 | 1012.3 |
| 20260905225716 | 96 | 54 | 1.7 | 2.6 | 0.00 | 0.00 | 0.00 | 43 | 1012.2 |
| 20260905225212 | 96 | 89 | 4.3 | 5.2 | 0.00 | 0.00 | 0.00 | 43 | 1012.3 |
| 20260905224711 | 96 | 95 | 1.7 | 1.7 | 0.00 | 0.00 | 0.00 | 43 | 1012.2 |
| 20260905224206 | 98 | 129 | 2.6 | 3.5 | 0.00 | 0.00 | 0.00 | 41 | 1012.1 |
| 20260905223703 | 98 | 344 | 0.0 | 0.0 | 0.00 | 0.00 | 0.00 | 42 | 1012.2 |
| 20260905223159 | 97 | 285 | 1.7 | 1.7 | 0.00 | 0.00 | 0.00 | 41 | 1012.2 |
| 20260905222654 | 97 | 110 | 0.0 | 0.0 | 0.00 | 0.00 | 0.00 | 41 | 1012.2 |
| 20260905222148 | 97 | 56 | 3.5 | 5.2 | 0.00 | 0.00 | 0.00 | 40 | 1012.4 |
| 20260905221644 | 98 | 92 | 0.9 | 0.9 | 0.00 | 0.00 | 0.00 | 40 | 1012.4 |
| 20260905221141 | 97 | 197 | 3.5 | 6.1 | 0.00 | 0.00 | 0.00 | 41 | 1012.2 |
| 20260905220636 | 98 | 96 | 6.1 | 7.0 | 0.00 | 0.00 | 0.00 | 40 | 1012.5 |
| 20260905220132 | 98 | 258 | 0.0 | 0.0 | 0.00 | 0.00 | 0.00 | 39 | 1012.4 |
| 20260905215631 | 98 | 130 | 2.6 | 3.5 | 0.00 | 0.00 | 0.00 | 40 | 1012.4 |
| 20260905215127 | 97 | 131 | 0.0 | 0.0 | 0.00 | 0.00 | 0.00 | 41 | 1012.5 |
| 20260905214623 | 95 | 141 | 0.0 | 0.0 | 0.00 | 0.00 | 0.00 | 42 | 1012.4 |
| 20260905214118 | 95 | 163 | 0.0 | 0.0 | 0.00 | 0.00 | 0.00 | 41 | 1012.5 |
| 20260905213613 | 97 | 83 | 1.7 | 2.6 | 0.00 | 0.00 | 0.00 | 41 | 1012.4 |
| 20260905213108 | 96 | 93 | 3.5 | 6.1 | 0.00 | 0.00 | 0.00 | 41 | 1012.4 |
| 20260905212603 | 95 | 117 | 5.2 | 6.1 | 0.00 | 0.00 | 0.00 | 42 | 1012.4 |
| 20260905212103 | 95 | 59 | 1.7 | 3.5 | 0.00 | 0.00 | 0.00 | 42 | 1012.6 |
| 20260905211558 | 95 | 31 | 1.7 | 2.6 | 0.00 | 0.00 | 0.00 | 43 | 1012.8 |
| 20260905211053 | 97 | 134 | 2.6 | 3.5 | 0.00 | 0.00 | 0.00 | 43 | 1012.7 |
| 20260905210549 | 98 | 111 | 0.0 | 0.0 | 0.00 | 0.00 | 0.00 | 41 | 1012.8 |
| 20260905210044 | 97 | 66 | 0.0 | 0.0 | 0.00 | 0.00 | 0.00 | 41 | 1013.0 |
| 20260905205543 | 98 | 215 | 0.0 | 0.0 | 0.00 | 0.00 | 0.00 | 40 | 1012.7 |
| 20260905205043 | 97 | 120 | 5.2 | 6.1 | 0.00 | 0.00 | 0.00 | 42 | 1013.0 |
| 20260905204538 | 98 | 152 | 3.5 | 5.2 | 0.00 | 0.00 | 0.00 | 41 | 1013.0 |
| 20260905204033 | 98 | 253 | 0.0 | 0.0 | 0.00 | 0.00 | 0.00 | 41 | 1013.2 |
| 20260905203533 | 97 | 33 | 0.0 | 0.9 | 0.00 | 0.00 | 0.00 | 41 | 1013.4 |
| 20260905203028 | 95 | 14 | 2.6 | 3.5 | 0.00 | 0.00 | 0.00 | 43 | 1013.4 |
| 20260905202523 | 95 | 32 | 0.0 | 0.0 | 0.00 | 0.00 | 0.00 | 45 | 1013.4 |
| 20260905202019 | 95 | 68 | 0.9 | 2.6 | 0.00 | 0.00 | 0.00 | 45 | 1013.6 |
| 20260905201514 | 96 | 111 | 3.5 | 6.1 | 0.00 | 0.00 | 0.00 | 42 | 1013.6 |
| 20260905201014 | 96 | 104 | 1.7 | 3.5 | 0.00 | 0.00 | 0.00 | 42 | 1013.7 |
| 20260905200509 | 95 | 69 | 0.9 | 2.6 | 0.00 | 0.00 | 0.00 | 44 | 1013.7 |
| 20260905200008 | 95 | 46 | 2.6 | 3.5 | 0.00 | 0.00 | 0.00 | 43 | 1013.9 |
| 20260905195502 | 95 | 104 | 2.6 | 2.6 | 0.00 | 0.00 | 0.00 | 44 | 1014.0 |
| 20260905194958 | 95 | 221 | 0.0 | 0.0 | 0.00 | 0.00 | 0.00 | 44 | 1013.9 |
| 20260905194452 | 94 | 219 | 2.6 | 3.5 | 0.00 | 0.00 | 0.00 | 45 | 1014.3 |
| 20260905193946 | 95 | 174 | 4.3 | 5.2 | 0.00 | 0.00 | 0.00 | 45 | 1014.2 |
| 20260905193441 | 95 | 111 | 3.5 | 6.1 | 0.00 | 0.00 | 0.00 | 44 | 1014.3 |
| 20260905192936 | 95 | 165 | 3.5 | 5.2 | 0.00 | 0.00 | 0.00 | 45 | 1014.3 |
| 20260905192431 | 94 | 190 | 7.8 | 8.7 | 0.00 | 0.00 | 0.00 | 46 | 1014.5 |
| 20260905191926 | 95 | 135 | 7.0 | 8.7 | 0.00 | 0.00 | 0.00 | 46 | 1014.5 |
| 20260905191425 | 95 | 27 | 0.9 | 0.9 | 0.00 | 0.00 | 0.00 | 46 | 1014.6 |
| 20260905190920 | 95 | 82 | 3.5 | 5.2 | 0.00 | 0.00 | 0.00 | 46 | 1014.6 |
| 20260905190418 | 94 | 229 | 1.7 | 1.7 | 0.00 | 0.00 | 0.00 | 46 | 1014.9 |
| 20260905185917 | 94 | 113 | 3.5 | 5.2 | 0.00 | 0.00 | 0.00 | 47 | 1015.0 |
| 20260905185412 | 94 | 188 | 5.2 | 6.1 | 0.00 | 0.00 | 0.00 | 46 | 1015.1 |
| 20260905184910 | 93 | 308 | 1.7 | 1.7 | 0.00 | 0.00 | 0.00 | 48 | 1015.3 |
| 20260905184405 | 93 | 169 | 7.0 | 7.8 | 0.00 | 0.00 | 0.00 | 48 | 1015.2 |
| 20260905183903 | 94 | 141 | 1.7 | 2.6 | 0.00 | 0.00 | 0.00 | 49 | 1015.3 |
| 20260905183359 | 92 | 96 | 1.7 | 3.5 | 0.00 | 0.00 | 0.00 | 51 | 1015.4 |
| 20260905182853 | 93 | 83 | 6.1 | 7.0 | 0.00 | 0.00 | 0.00 | 48 | 1015.4 |
| 20260905182347 | 92 | 120 | 5.2 | 6.1 | 0.00 | 0.00 | 0.00 | 51 | 1015.5 |
| 20260905181842 | 92 | 165 | 1.7 | 2.6 | 0.00 | 0.00 | 0.00 | 50 | 1015.7 |
| 20260905181337 | 93 | 206 | 5.2 | 6.1 | 0.00 | 0.00 | 0.00 | 47 | 1015.8 |
| 20260905180836 | 92 | 172 | 5.2 | 7.0 | 0.00 | 0.00 | 0.00 | 50 | 1015.8 |
| 20260905180331 | 92 | 84 | 3.5 | 3.5 | 0.00 | 0.00 | 0.00 | 53 | 1016.0 |
| 20260905175825 | 92 | 245 | 2.6 | 2.6 | 0.00 | 0.00 | 0.00 | 51 | 1016.0 |
| 20260905175320 | 91 | 173 | 4.3 | 7.0 | 0.00 | 0.00 | 0.00 | 52 | 1016.0 |
| 20260905174815 | 91 | 189 | 6.1 | 7.0 | 0.00 | 0.00 | 0.00 | 51 | 1015.9 |
| 20260905174311 | 91 | 178 | 4.3 | 5.2 | 0.00 | 0.00 | 0.00 | 51 | 1016.2 |
| 20260905173807 | 91 | 144 | 5.2 | 6.1 | 0.00 | 0.00 | 0.00 | 52 | 1016.3 |
| 20260905173303 | 91 | 170 | 4.3 | 6.1 | 0.00 | 0.00 | 0.00 | 55 | 1016.2 |
| 20260905172803 | 91 | 76 | 7.8 | 9.6 | 0.00 | 0.00 | 0.00 | 54 | 1016.2 |
| 20260905172301 | 90 | 110 | 1.7 | 3.5 | 0.00 | 0.00 | 0.00 | 56 | 1016.5 |
| 20260905171757 | 91 | 158 | 3.5 | 6.1 | 0.00 | 0.00 | 0.00 | 55 | 1016.6 |
| 20260905171253 | 89 | 147 | 4.3 | 5.2 | 0.00 | 0.00 | 0.00 | 58 | 1016.7 |
| 20260905170750 | 91 | 68 | 1.7 | 2.6 | 0.00 | 0.00 | 0.00 | 58 | 1016.6 |
| 20260905170245 | 91 | 214 | 4.3 | 7.0 | 0.00 | 0.00 | 0.00 | 56 | 1016.8 |
| 20260905165744 | 89 | 125 | 3.5 | 6.1 | 0.00 | 0.00 | 0.00 | 60 | 1016.8 |
| 20260905165240 | 90 | 120 | 6.1 | 7.8 | 0.00 | 0.00 | 0.00 | 59 | 1016.7 |
| 20260905164734 | 89 | 192 | 4.3 | 5.2 | 0.00 | 0.00 | 0.00 | 62 | 1016.9 |
| 20260905164229 | 89 | 103 | 3.5 | 6.1 | 0.00 | 0.00 | 0.00 | 63 | 1016.7 |
| 20260905163725 | 88 | 162 | 5.2 | 6.1 | 0.00 | 0.00 | 0.00 | 65 | 1016.9 |
| 20260905163221 | 89 | 97 | 3.5 | 5.2 | 0.00 | 0.00 | 0.00 | 63 | 1017.0 |
| 20260905162717 | 88 | 209 | 5.2 | 7.0 | 0.00 | 0.00 | 0.00 | 65 | 1016.8 |
| 20260905162216 | 88 | 183 | 1.7 | 2.6 | 0.00 | 0.00 | 0.00 | 66 | 1016.9 |
| 20260905161711 | 89 | 120 | 5.2 | 7.0 | 0.00 | 0.00 | 0.00 | 65 | 1016.6 |
| 20260905161209 | 88 | 141 | 3.5 | 3.5 | 0.00 | 0.00 | 0.00 | 67 | 1016.8 |
| 20260905160708 | 88 | 128 | 1.7 | 1.7 | 0.00 | 0.00 | 0.00 | 67 | 1016.8 |
| 20260905160202 | 88 | 187 | 0.9 | 0.9 | 0.00 | 0.00 | 0.00 | 68 | 1016.8 |
| 20260905155701 | 86 | 167 | 4.3 | 6.1 | 0.00 | 0.00 | 0.00 | 69 | 1016.8 |
| 20260905155201 | 87 | 187 | 7.0 | 7.8 | 0.00 | 0.00 | 0.00 | 69 | 1016.8 |
| 20260905154656 | 86 | 170 | 4.3 | 6.1 | 0.00 | 0.00 | 0.00 | 70 | 1017.0 |
| 20260905154151 | 87 | 145 | 1.7 | 1.7 | 0.00 | 0.00 | 0.00 | 70 | 1016.7 |
| 20260905153648 | 87 | 172 | 3.5 | 5.2 | 0.00 | 0.00 | 0.00 | 70 | 1016.8 |
| 20260905153142 | 86 | 275 | 3.5 | 3.5 | 0.00 | 0.00 | 0.00 | 72 | 1016.8 |
| 20260905152637 | 86 | 155 | 5.2 | 6.1 | 0.00 | 0.00 | 0.00 | 72 | 1016.5 |
| 20260905152131 | 86 | 204 | 5.2 | 7.0 | 0.00 | 0.00 | 0.00 | 71 | 1016.8 |
| 20260905151626 | 86 | 180 | 4.3 | 5.2 | 0.00 | 0.00 | 0.00 | 71 | 1016.8 |
| 20260905151122 | 86 | 186 | 3.5 | 3.5 | 0.00 | 0.00 | 0.00 | 71 | 1016.9 |
| 20260905150617 | 85 | 207 | 0.9 | 0.9 | 0.00 | 0.00 | 0.00 | 74 | 1016.7 |
| 20260905150115 | 85 | 163 | 5.2 | 6.1 | 0.00 | 0.00 | 0.00 | 74 | 1016.8 |
| 20260905145609 | 84 | 208 | 1.7 | 2.6 | 0.00 | 0.00 | 0.00 | 78 | 1016.8 |
| 20260905145108 | 83 | 212 | 5.2 | 6.1 | 0.00 | 0.00 | 0.00 | 78 | 1016.8 |
| 20260905144603 | 84 | 164 | 5.2 | 6.1 | 0.00 | 0.00 | 0.00 | 76 | 1016.7 |
| 20260905144102 | 84 | 320 | 3.5 | 3.5 | 0.00 | 0.00 | 0.00 | 76 | 1016.6 |
| 20260905143601 | 84 | 111 | 0.9 | 1.7 | 0.00 | 0.00 | 0.00 | 82 | 1016.6 |
| 20260905143057 | 84 | 207 | 0.9 | 0.9 | 0.00 | 0.00 | 0.00 | 81 | 1016.6 |
| 20260905142555 | 83 | 112 | 1.7 | 1.7 | 0.00 | 0.00 | 0.00 | 83 | 1016.7 |
| 20260905142050 | 83 | 100 | 3.5 | 3.5 | 0.00 | 0.00 | 0.00 | 82 | 1016.6 |
| 20260905141545 | 82 | 215 | 4.3 | 5.2 | 0.00 | 0.00 | 0.00 | 84 | 1016.7 |
| 20260905141041 | 82 | 210 | 3.5 | 3.5 | 0.00 | 0.00 | 0.00 | 84 | 1016.8 |
| 20260905140536 | 82 | 229 | 3.5 | 3.5 | 0.00 | 0.00 | 0.00 | 85 | 1016.7 |
| 20260905140035 | 81 | 190 | 2.6 | 3.5 | 0.00 | 0.00 | 0.00 | 86 | 1016.5 |
| 20260905135530 | 81 | 178 | 0.9 | 0.9 | 0.00 | 0.00 | 0.00 | 87 | 1016.8 |
| 20260905135025 | 81 | 180 | 4.3 | 5.2 | 0.00 | 0.00 | 0.00 | 87 | 1016.5 |
| 20260905134520 | 82 | 191 | 1.7 | 1.7 | 0.00 | 0.00 | 0.00 | 87 | 1016.5 |
| 20260905134019 | 82 | 217 | 1.7 | 1.7 | 0.00 | 0.00 | 0.00 | 87 | 1016.4 |
| 20260905133514 | 82 | 266 | 0.9 | 0.9 | 0.00 | 0.00 | 0.00 | 87 | 1016.4 |
| 20260905133013 | 81 | 124 | 2.6 | 2.6 | 0.00 | 0.00 | 0.00 | 89 | 1016.4 |
| 20260905132509 | 81 | 100 | 1.7 | 2.6 | 0.00 | 0.00 | 0.00 | 89 | 1016.4 |
| 20260905132009 | 80 | 119 | 2.6 | 2.6 | 0.00 | 0.00 | 0.00 | 90 | 1016.3 |
| 20260905131504 | 80 | 150 | 1.7 | 1.7 | 0.00 | 0.00 | 0.00 | 89 | 1016.2 |
| 20260905130959 | 80 | 90 | 0.0 | 0.0 | 0.00 | 0.00 | 0.00 | 90 | 1016.2 |
| 20260905123621 | 77 | 132 | 0.0 | 0.0 | 0.00 | 0.00 | 0.00 | 94 | 1015.6 |
| 20260905123118 | 77 | 132 | 0.0 | 0.0 | 0.00 | 0.00 | 0.00 | 94 | 1015.6 |
| 20260905122612 | 77 | 132 | 0.0 | 0.0 | 0.00 | 0.00 | 0.00 | 94 | 1015.6 |
| 20260905122106 | 77 | 148 | 0.0 | 0.0 | 0.00 | 0.00 | 0.00 | 94 | 1015.8 |
| 20260905121556 | 77 | 149 | 2.6 | 2.6 | 0.00 | 0.00 | 0.00 | 94 | 1015.7 |
| 20260905121051 | 77 | 109 | 0.9 | 0.9 | 0.00 | 0.00 | 0.00 | 94 | 1015.6 |
| 20260905120550 | 77 | 98 | 0.0 | 0.0 | 0.00 | 0.00 | 0.00 | 94 | 1015.5 |
| 20260905120046 | 77 | 100 | 0.0 | 0.0 | 0.00 | 0.00 | 0.00 | 94 | 1015.4 |
| 20260905115544 | 78 | 136 | 0.0 | 0.0 | 0.00 | 0.00 | 0.00 | 93 | 1015.4 |
| 20260905115039 | 78 | 136 | 0.0 | 0.0 | 0.00 | 0.00 | 0.00 | 93 | 1015.3 |
| 20260905114538 | 78 | 136 | 0.0 | 0.0 | 0.00 | 0.00 | 0.00 | 93 | 1015.4 |
| 20260905114037 | 78 | 136 | 0.0 | 0.0 | 0.00 | 0.00 | 0.00 | 93 | 1015.5 |
| 20260905113532 | 78 | 134 | 0.0 | 0.0 | 0.00 | 0.00 | 0.00 | 93 | 1015.5 |
| 20260905113028 | 78 | 133 | 0.0 | 0.0 | 0.00 | 0.00 | 0.00 | 93 | 1015.4 |
| 20260905112523 | 78 | 162 | 0.0 | 0.0 | 0.00 | 0.00 | 0.00 | 93 | 1015.3 |
| 20260905112019 | 78 | 160 | 0.0 | 0.0 | 0.00 | 0.00 | 0.00 | 93 | 1015.3 |
| 20260905111513 | 78 | 189 | 0.0 | 0.0 | 0.00 | 0.00 | 0.00 | 93 | 1015.4 |
| 20260905111013 | 78 | 206 | 0.0 | 0.0 | 0.00 | 0.00 | 0.00 | 93 | 1015.4 |
| 20260905110512 | 78 | 220 | 0.0 | 0.0 | 0.00 | 0.00 | 0.00 | 93 | 1015.3 |
| 20260905110007 | 78 | 133 | 0.0 | 0.0 | 0.00 | 0.00 | 0.00 | 92 | 1015.4 |
| 20260905105502 | 78 | 143 | 0.0 | 0.0 | 0.00 | 0.00 | 0.00 | 92 | 1015.3 |
| 20260905105001 | 78 | 223 | 0.0 | 0.0 | 0.00 | 0.00 | 0.00 | 92 | 1015.4 |
| 20260905104456 | 78 | 234 | 0.0 | 0.0 | 0.00 | 0.00 | 0.00 | 92 | 1015.3 |
| 20260905103951 | 78 | 218 | 0.0 | 0.0 | 0.00 | 0.00 | 0.00 | 92 | 1015.2 |
| 20260905103446 | 78 | 182 | 0.0 | 0.0 | 0.00 | 0.00 | 0.00 | 92 | 1015.1 |
| 20260905102942 | 78 | 191 | 0.0 | 0.0 | 0.00 | 0.00 | 0.00 | 92 | 1015.2 |
| 20260905102438 | 78 | 224 | 0.0 | 0.0 | 0.00 | 0.00 | 0.00 | 92 | 1015.1 |
| 20260905101933 | 78 | 226 | 0.0 | 0.0 | 0.00 | 0.00 | 0.00 | 92 | 1015.3 |
| 20260905101432 | 78 | 231 | 0.0 | 0.0 | 0.00 | 0.00 | 0.00 | 92 | 1015.2 |
| 20260905100927 | 78 | 230 | 0.0 | 0.0 | 0.00 | 0.00 | 0.00 | 92 | 1015.3 |
| 20260905100422 | 78 | 194 | 0.0 | 0.0 | 0.00 | 0.00 | 0.00 | 92 | 1015.1 |
| 20260905095921 | 78 | 211 | 0.0 | 0.0 | 0.00 | 0.00 | 0.00 | 92 | 1015.1 |
| 20260905095416 | 78 | 208 | 0.0 | 0.9 | 0.00 | 0.00 | 0.00 | 92 | 1015.0 |
| 20260905094910 | 78 | 187 | 0.0 | 0.9 | 0.00 | 0.00 | 0.00 | 91 | 1015.0 |
| 20260905094406 | 78 | 239 | 0.0 | 0.0 | 0.00 | 0.00 | 0.00 | 91 | 1015.1 |
| 20260905093904 | 78 | 276 | 0.0 | 0.0 | 0.00 | 0.00 | 0.00 | 91 | 1015.1 |
| 20260905093355 | 78 | 276 | 0.0 | 0.0 | 0.00 | 0.00 | 0.00 | 91 | 1015.0 |
| 20260905092850 | 78 | 277 | 0.0 | 0.0 | 0.00 | 0.00 | 0.00 | 90 | 1015.1 |
| 20260905092345 | 78 | 277 | 0.0 | 0.0 | 0.00 | 0.00 | 0.00 | 90 | 1015.1 |
| 20260905091840 | 78 | 276 | 0.0 | 0.0 | 0.00 | 0.00 | 0.00 | 90 | 1015.2 |
| 20260905091340 | 78 | 238 | 0.0 | 0.0 | 0.00 | 0.00 | 0.00 | 90 | 1015.2 |
| 20260905090838 | 79 | 219 | 0.0 | 0.0 | 0.00 | 0.00 | 0.00 | 90 | 1015.1 |
| 20260905090335 | 79 | 184 | 0.0 | 0.0 | 0.00 | 0.00 | 0.00 | 89 | 1015.0 |
| 20260905085834 | 79 | 204 | 0.0 | 0.0 | 0.00 | 0.00 | 0.00 | 89 | 1015.0 |
| 20260905085334 | 79 | 194 | 0.9 | 0.9 | 0.00 | 0.00 | 0.00 | 89 | 1015.2 |
| 20260905084830 | 79 | 121 | 2.6 | 2.6 | 0.00 | 0.00 | 0.00 | 89 | 1015.2 |
| 20260905084329 | 79 | 171 | 0.9 | 0.9 | 0.00 | 0.00 | 0.00 | 88 | 1015.1 |
| 20260905083829 | 79 | 145 | 1.7 | 1.7 | 0.00 | 0.00 | 0.00 | 88 | 1015.2 |
| 20260905083325 | 79 | 172 | 2.6 | 2.6 | 0.00 | 0.00 | 0.00 | 88 | 1015.3 |
| 20260905082820 | 79 | 178 | 1.7 | 1.7 | 0.00 | 0.00 | 0.00 | 88 | 1015.2 |
| 20260905082316 | 79 | 196 | 2.6 | 2.6 | 0.00 | 0.00 | 0.00 | 87 | 1015.1 |
| 20260905081811 | 79 | 113 | 3.5 | 5.2 | 0.00 | 0.00 | 0.00 | 87 | 1015.3 |
| 20260905081306 | 79 | 199 | 1.7 | 1.7 | 0.00 | 0.00 | 0.00 | 87 | 1015.4 |
| 20260905080805 | 79 | 166 | 2.6 | 2.6 | 0.00 | 0.00 | 0.00 | 87 | 1015.2 |
| 20260905080300 | 80 | 166 | 2.6 | 2.6 | 0.00 | 0.00 | 0.00 | 87 | 1015.3 |
| 20260905075758 | 80 | 145 | 1.7 | 2.6 | 0.00 | 0.00 | 0.00 | 87 | 1015.3 |
| 20260905075253 | 80 | 191 | 2.6 | 3.5 | 0.00 | 0.00 | 0.00 | 87 | 1015.5 |
| 20260905074752 | 79 | 204 | 4.3 | 7.0 | 0.00 | 0.00 | 0.00 | 87 | 1015.3 |
| 20260905074248 | 80 | 187 | 4.3 | 6.1 | 0.00 | 0.00 | 0.00 | 86 | 1015.4 |
| 20260905073743 | 80 | 176 | 2.6 | 2.6 | 0.00 | 0.00 | 0.00 | 86 | 1015.4 |
| 20260905073239 | 80 | 168 | 2.6 | 2.6 | 0.00 | 0.00 | 0.00 | 86 | 1015.5 |
| 20260905072738 | 80 | 161 | 5.2 | 6.1 | 0.00 | 0.00 | 0.00 | 85 | 1015.5 |
| 20260905072234 | 80 | 189 | 5.2 | 7.0 | 0.00 | 0.00 | 0.00 | 85 | 1015.5 |
| 20260905071730 | 80 | 114 | 3.5 | 5.2 | 0.00 | 0.00 | 0.00 | 85 | 1015.7 |
| 20260905071226 | 80 | 175 | 4.3 | 6.1 | 0.00 | 0.00 | 0.00 | 85 | 1015.7 |
| 20260905070721 | 80 | 168 | 1.7 | 1.7 | 0.00 | 0.00 | 0.00 | 85 | 1015.5 |
| 20260905070217 | 80 | 168 | 2.6 | 5.2 | 0.00 | 0.00 | 0.00 | 85 | 1015.7 |
| 20260905065715 | 80 | 191 | 3.5 | 3.5 | 0.00 | 0.00 | 0.00 | 84 | 1015.8 |
| 20260905065210 | 80 | 141 | 1.7 | 2.6 | 0.00 | 0.00 | 0.00 | 84 | 1015.6 |